Hourly Weather Roundup
Issued by NWS Central Illinois

Home | Current Version | Previous Version | Text Only | Print | Product List | Glossary Off
Versions: 1 2 3 4 5 6 7 8 9 10 11 12 13 14 15 16 17 18 19 20 21 22 23 24 25 26 27 28 29 30 31 32 33 34 35 36 37 38 39 40 41 42 43 44 45 46 47 48 49 50

111
NZUS43 KILX 190810
HWRILX

Area Weather Roundup
National Weather Service Lincoln IL
300 AM CDT THU APR 19 2018

NOTE:  "FAIR" indicates few or no clouds below 12,000 feet, with
       no sigificant weather and/or obstructions to visibility.


CITY           SKY/WX    TMP DP  RH WIND       PRES   REMARKS
Bloomington    CLOUDY    32  29  88 NW16      30.07R WCI  21
Champaign      CLOUDY    33  30  88 NW17      30.05R WCI  22
Danville       CLOUDY    33  30  89 NW17      29.99R WCI  22
Decatur        CLOUDY    34  29  82 NW13      30.08R WCI  25
Effingham      CLOUDY    36  30  77 W15       30.11R WCI  27
Flora          CLOUDY    39  29  67 NW15G24   30.10R WCI  31
Galesburg      CLOUDY    36  34  93 NW10      30.15R WCI  28
Jacksonville   CLOUDY    33  28  79 NW10      30.14R WCI  25
Lacon          CLOUDY    33  31  92 N7        30.10R WCI  27
Lawrenceville  MOCLDY    38  27  64 NW17G24   30.07R WCI  28
Litchfield     CLOUDY    34  28  79 NW17G23   30.13R WCI  23
$$


CITY           SKY/WX    TMP DP  RH WIND       PRES   REMARKS
Lincoln        CLOUDY    35  32  88 NW6       30.11R WCI  30
Macomb         CLOUDY    33  29  86 NW12      30.17R WCI  24
Mattoon        CLOUDY    34  29  82 NW20      30.06R WCI  23
Mt Carmel AP   CLOUDY    38  27  64 NW20G30   30.07R WCI  28
Olney-Noble AP CLOUDY    37  24  60 NW17      30.09R WCI  27
Paris AP       CLOUDY    34  32  92 NW17      30.05R WCI  23
Peoria         CLOUDY    34  29  82 NW8G18    30.11S WCI  27
Pontiac        MIX PCPN  33  33  99 NW15      30.06R WCI  23
Rantoul        CLOUDY    35  32  89 NW15G22   30.04R WCI  25
Robinson       CLOUDY    35  29  79 NW12G23   30.07R WCI  27
Springfield    CLOUDY    36  29  75 NW13      30.12R WCI  27
Taylorville    CLOUDY    34  28  76 NW13G22   30.11R WCI  25
$$

...REGIONAL REPORTS...


CITY           SKY/WX    TMP DP  RH WIND       PRES   REMARKS
Chicago O`Hare FLURRIES  33  33 100 NE13      30.04R WCI  24
Kankakee       LGT RAIN  33  32  96 NW12      30.03R WCI  24
La Salle       CLOUDY    35  33  92 NW14      30.09R WCI  26
Moline         CLOUDY    34  31  88 NW10      30.15R WCI  26
Mount Sterling CLOUDY    32  27  82 NW14      30.15R WCI  22
Mount Vernon   CLOUDY    39  25  57 VRB5      30.12R
Pittsfield     CLOUDY    34  26  72 NW10      30.18R WCI  26
Quincy         CLOUDY    34  26  72 NW16      30.17R WCI  24
Rockford       CLOUDY    33  29  85 N10       30.11R WCI  25
$$


CITY           SKY/WX    TMP DP  RH WIND       PRES   REMARKS
Burlington     CLOUDY    33  28  81 NW14      30.16R WCI  23
Cedar Rapids   CLOUDY    32  31  96 NW10      30.17R WCI  24
Des Moines     CLOUDY    32  29  88 NW7       30.25R WCI  26
Kirksville     CLOUDY    31  27  85 NW7       30.21R WCI  24
Ottumwa        CLOUDY    32  28  85 NW16      30.20R WCI  21
St Louis       CLOUDY    38  27  64 N14       30.15R WCI  30
$$


CITY           SKY/WX    TMP DP  RH WIND       PRES   REMARKS
Terre Haute    CLOUDY    36  31  82 W13G21    30.03R WCI  27
Evansville     CLOUDY    40  27  59 NW15G29   30.09R WCI  32
Indianapolis   MOCLDY    34  29  82 W18G24    29.96R WCI  23
Lafayette      FLURRIES  33  32  96 NW14      29.97R WCI  23
Madison        FAIR      28  25  88 N8        30.12R WCI  20
Milwaukee      FAIR      34  27  75 NW9       30.07R WCI  27
$$






USA.gov is the U.S. government's official web portal to all federal, state and local government web resources and services.